RADIO ROSTO (RS-15)

Last updated on Mon Sep 15 2025 00:03:09 GMT+0000 (Coordinated Universal Time)

1 23439U 94085A 25257.29274596 -.00000049 00000+0 -17488-3 0 9997 2 23439 64.8196 29.4011 0147364 55.7817 305.6971 11.27581671264790
UTC large
Height (km)
Speed (km/s)
/
Latitude / Longitude
Inclination (degrees)
Orbital Period (minutes)
Azimuth
Elevation
Range (km)
Doppler Factor

Next 0 passes for location: London (51.5072 / 0.1276)

Sorry there are no passes over London.